Flag for U.S.A. Weather past 2 weeks in El Monte, California, U.S.A.

Now
70 °F

Passing clouds.


Feels Like: 70 °F
Forecast: 65 / 90 °F
Wind: 3 mph from Southeast

Location: Fullerton Municipal Airport

Current Time: Jul 28, 2015 at 1:28:05 AM

Latest Report: Jul 28, 2015 at 12:53 AM


Visibility: 10 mi

Pressure: 29.88 "Hg

Humidity: 81%

Dew point: 64 °F

Location of El MonteLocation

Historic Weather in El Monte — Graph

°F

El Monte temperature yesterday

Maximum temperature yesterday: 81 °F (at 11:53 AM)
Minimum temperature yesterday: 68 °F (at 1:53 AM)
Average temperature yesterday: 74 °F

Past Weeks' High & Low Weather Summary

 TemperatureHumidityPressure
High90 °F (Jul 19, 10:53 AM)91% (Jul 18, 8:53 PM)30.07 "Hg (Jul 18, 8:53 PM)
Low66 °F (Jul 13, 4:53 AM)30% (Jul 18, 11:53 AM)29.77 "Hg (Jul 17, 4:53 PM)
Average75 °F67%29.92 "Hg
* Reported Jul 12 11:53 PM — Jul 27 11:53 PM, El Monte, Weather by CustomWeather, © 2015

Note: Actual official high and low records may vary slightly from our data, if they occured in-between our weather recording intervals... More about our weather records

Advertising

El Monte weather history for previous 24 hours

 ConditionsComfort  
Time TempWeatherWind HumidityBarometerVisibility
11:53 PM
Mon, Jul 27
71 °FOvercast.No wind76%29.88 "Hg10 mi
10:53 PM72 °FClear.3 mph73%29.89 "Hg10 mi
9:53 PM73 °FClear.3 mph69%29.89 "Hg10 mi
8:53 PM73 °FSunny.5 mph66%29.87 "Hg10 mi
7:53 PM74 °FSunny.5 mph64%29.86 "Hg10 mi
6:53 PM76 °FSunny.7 mph58%29.85 "Hg10 mi
5:53 PM79 °FSunny.7 mph52%29.84 "Hg10 mi
4:53 PM79 °FSunny.7 mph52%29.85 "Hg10 mi
3:53 PM80 °FSunny.8 mph51%29.86 "Hg10 mi
2:53 PM80 °FSunny.6 mph51%29.88 "Hg10 mi
1:53 PM81 °FSunny.10 mph49%29.88 "Hg10 mi
12:53 PM79 °FSunny.8 mph52%29.89 "Hg10 mi
11:53 AM81 °FSunny.3 mph45%29.90 "Hg10 mi
10:53 AM77 °FSunny.8 mph52%29.92 "Hg10 mi
9:53 AM74 °FPassing clouds.5 mph60%29.93 "Hg10 mi
8:53 AM71 °FOvercast.No wind66%29.93 "Hg10 mi
7:53 AM70 °FOvercast.6 mph68%29.93 "Hg10 mi
6:53 AM69 °FOvercast.3 mph70%29.91 "Hg10 mi
5:53 AM70 °FOvercast.No wind68%29.90 "Hg10 mi
4:53 AM70 °FOvercast.No wind68%29.89 "Hg10 mi
3:53 AM70 °FOvercast.5 mph71%29.89 "Hg10 mi
2:53 AM69 °FOvercast.6 mph79%29.89 "Hg10 mi
1:53 AM68 °FOvercast.6 mph78%29.90 "Hg10 mi
Weather by CustomWeather, © 2015

See weather overviewHow to use our weather pages